| time (UTC) | temp C | wind direction | speed KPH | gust KPH | rain 1hr cm | rain 24hr cm | rain mn cm | humidity % | barometer mb |
| 20260502220033 | 11 | 240 | 3.2 | 6.4 | 0.00 | 0.00 | 0.00 | 25 | 1017.6 |
| 20260502214510 | 10 | 281 | 1.6 | 9.7 | 0.00 | 0.00 | 0.00 | 25 | 1017.9 |
| 20260502213124 | 10 | 249 | 0.0 | 9.7 | 0.00 | 0.00 | 0.00 | 27 | 1018.4 |
| 20260502211555 | 10 | 134 | 1.6 | 11.3 | 0.00 | 0.00 | 0.00 | 22 | 1018.7 |
| 20260502210047 | 9 | 203 | 3.2 | 9.7 | 0.00 | 0.00 | 0.00 | 23 | 1019.0 |
| 20260502204549 | 9 | 148 | 4.8 | 12.9 | 0.00 | 0.05 | 0.00 | 25 | 1019.1 |
| 20260502203101 | 9 | 150 | 4.8 | 14.5 | 0.00 | 0.05 | 0.00 | 26 | 1019.1 |
| 20260502201552 | 9 | 140 | 4.8 | 9.7 | 0.00 | 0.05 | 0.00 | 27 | 1019.1 |
| 20260502200027 | 9 | 267 | 4.8 | 12.9 | 0.00 | 0.05 | 0.00 | 29 | 1019.3 |
| 20260502194513 | 9 | 298 | 0.0 | 8.0 | 0.00 | 0.43 | 0.00 | 30 | 1019.3 |
| 20260502193032 | 9 | 171 | 3.2 | 6.4 | 0.00 | 0.43 | 0.00 | 36 | 1019.4 |
| 20260502191540 | 8 | 138 | 3.2 | 8.0 | 0.00 | 0.43 | 0.00 | 30 | 1019.8 |
| 20260502190033 | 8 | 183 | 0.0 | 9.7 | 0.00 | 0.43 | 0.00 | 36 | 1020.0 |
| 20260502184622 | 8 | 167 | 0.0 | 14.5 | 0.00 | 0.69 | 0.00 | 31 | 1020.3 |
| 20260502183114 | 7 | 271 | 3.2 | 12.9 | 0.00 | 0.69 | 0.00 | 35 | 1020.4 |
| 20260502181612 | 7 | 266 | 3.2 | 11.3 | 0.00 | 0.69 | 0.00 | 36 | 1020.5 |
| 20260502163108 | 5 | 315 | 3.2 | 9.7 | 0.00 | 1.19 | 0.00 | 41 | 1021.4 |
| 20260502161607 | 5 | 249 | 1.6 | 6.4 | 0.00 | 1.19 | 0.00 | 42 | 1021.4 |
| 20260502151551 | 3 | 316 | 1.6 | 6.4 | 0.00 | 1.35 | 0.00 | 50 | 1021.2 |
| 20260502123045 | -3 | 52 | 0.0 | 6.4 | 0.00 | 1.35 | 0.00 | 78 | 1021.5 |
| 20260502121530 | -3 | 73 | 1.6 | 4.8 | 0.00 | 1.35 | 0.00 | 77 | 1021.3 |
| 20260502114558 | -3 | 89 | 1.6 | 6.4 | 0.00 | 1.35 | 0.00 | 76 | 1021.3 |
| 20260502113101 | -3 | 84 | 3.2 | 8.0 | 0.00 | 1.35 | 0.00 | 76 | 1021.3 |
| 20260502111623 | -3 | 82 | 3.2 | 8.0 | 0.00 | 1.35 | 0.00 | 77 | 1021.3 |
| 20260502110012 | -3 | 88 | 3.2 | 8.0 | 0.00 | 1.35 | 0.00 | 76 | 1021.2 |
| 20260502104559 | -3 | 99 | 1.6 | 4.8 | 0.00 | 1.35 | 0.00 | 78 | 1021.2 |
| 20260502103035 | -4 | 101 | 0.0 | 0.0 | 0.00 | 1.35 | 0.00 | 81 | 1021.1 |
| 20260502101532 | -4 | 101 | 0.0 | 0.0 | 0.00 | 1.35 | 0.00 | 82 | 1021.0 |
| 20260502090120 | -3 | 102 | 0.0 | 0.0 | 0.00 | 1.35 | 0.00 | 84 | 1020.7 |
| 20260502071516 | -3 | 102 | 0.0 | 0.0 | 0.00 | 1.35 | 0.00 | 84 | 1020.8 |
| 20260502070056 | -3 | 102 | 0.0 | 0.0 | 0.00 | 1.35 | 0.00 | 83 | 1020.8 |
| 20260502064517 | -3 | 102 | 0.0 | 0.0 | 0.00 | 1.35 | 0.00 | 84 | 1020.8 |
| 20260502063043 | -3 | 102 | 0.0 | 3.2 | 0.00 | 1.35 | 0.00 | 84 | 1020.8 |
| 20260502061546 | -3 | 102 | 0.0 | 0.0 | 0.00 | 1.35 | 0.00 | 84 | 1020.7 |
| 20260502054546 | -2 | 102 | 0.0 | 0.0 | 0.00 | 1.35 | 1.35 | 85 | 1020.6 |
| 20260502053050 | -2 | 102 | 0.0 | 1.6 | 0.00 | 1.35 | 1.35 | 82 | 1020.5 |
| 20260502051630 | -2 | 102 | 1.6 | 6.4 | 0.00 | 1.35 | 1.35 | 81 | 1020.5 |
| 20260502050044 | -2 | 108 | 0.0 | 0.0 | 0.00 | 1.35 | 1.35 | 80 | 1020.6 |
| 20260502044545 | -2 | 108 | 0.0 | 0.0 | 0.00 | 1.35 | 1.35 | 80 | 1020.5 |
| 20260502043123 | -2 | 108 | 0.0 | 0.0 | 0.00 | 1.35 | 1.35 | 78 | 1020.3 |
| 20260502041610 | -1 | 108 | 0.0 | 0.0 | 0.00 | 1.35 | 1.35 | 77 | 1020.3 |
| 20260502040027 | -1 | 108 | 0.0 | 0.0 | 0.00 | 1.35 | 1.35 | 75 | 1020.2 |
| 20260502034619 | -1 | 108 | 0.0 | 0.0 | 0.00 | 1.35 | 1.35 | 73 | 1020.0 |
| 20260502033114 | -1 | 108 | 0.0 | 0.0 | 0.00 | 1.35 | 1.35 | 72 | 1019.8 |
| 20260502031614 | 0 | 108 | 0.0 | 0.0 | 0.00 | 1.35 | 1.35 | 71 | 1019.6 |
| 20260502030112 | 0 | 108 | 1.6 | 6.4 | 0.00 | 1.35 | 1.35 | 73 | 1019.3 |
| 20260502024600 | 0 | 107 | 1.6 | 4.8 | 0.00 | 1.35 | 1.35 | 72 | 1019.1 |
| 20260502023126 | 0 | 100 | 3.2 | 6.4 | 0.00 | 1.35 | 1.35 | 73 | 1018.8 |
| 20260502021553 | 1 | 32 | 1.6 | 4.8 | 0.00 | 1.35 | 1.35 | 69 | 1018.6 |
| 20260502020112 | 1 | 17 | 0.0 | 0.0 | 0.00 | 1.35 | 1.35 | 60 | 1018.6 |
| 20260502014607 | 2 | 28 | 0.0 | 8.0 | 0.00 | 1.35 | 1.35 | 58 | 1018.2 |
| 20260502013028 | 3 | 337 | 1.6 | 4.8 | 0.00 | 1.35 | 1.35 | 59 | 1018.1 |
| 20260502011521 | 3 | 17 | 4.8 | 16.1 | 0.00 | 1.35 | 1.35 | 55 | 1017.8 |
| 20260502010002 | 3 | 329 | 1.6 | 6.4 | 0.00 | 1.35 | 1.35 | 58 | 1017.5 |
| 20260502004513 | 3 | 46 | 1.6 | 9.7 | 0.00 | 1.37 | 1.35 | 54 | 1017.5 |
| 20260502003015 | 3 | 113 | 1.6 | 12.9 | 0.00 | 1.37 | 1.35 | 58 | 1017.6 |
| 20260502001523 | 3 | 67 | 8.0 | 14.5 | 0.00 | 1.37 | 1.35 | 57 | 1017.7 |
| 20260502000100 | 3 | 275 | 3.2 | 14.5 | 0.00 | 1.37 | 1.35 | 58 | 1017.4 |
| 20260501234527 | 5 | 312 | 6.4 | 17.7 | 0.00 | 1.40 | 1.35 | 57 | 1017.3 |
| 20260501233021 | 5 | 350 | 3.2 | 14.5 | 0.00 | 1.40 | 1.35 | 56 | 1017.1 |
| 20260501231539 | 5 | 309 | 6.4 | 14.5 | 0.00 | 1.40 | 1.35 | 56 | 1017.0 |
| 20260501230037 | 3 | 360 | 3.2 | 8.0 | 0.00 | 1.40 | 1.35 | 62 | 1017.0 |
| 20260501224539 | 4 | 341 | 3.2 | 9.7 | 0.00 | 1.45 | 1.35 | 59 | 1017.0 |
| 20260501223037 | 5 | 313 | 0.0 | 9.7 | 0.00 | 1.45 | 1.35 | 60 | 1016.9 |
| 20260501221511 | 5 | 313 | 0.0 | 6.4 | 0.00 | 1.45 | 1.35 | 67 | 1017.1 |